When you browse on this site, cookies collect data to enhance your experience and personalize the content and advertising you see.
Visit our Privacy Policy to learn more. By continuing to use the site, you agree to this use of cookies and data.
  • In Hungary
  • List of Countries
  • For 7 days
  • Water Temperature
  • Satellite Maps
  • Weather Map
  • News
  • Weather Widgets
  • user-avatar
    Login

    Hourly Weather Kopylova

    Today, 18 December, Tuesday

    Time Temperature Precipitation Wind Pressure Humidity
    00:00 -14°C° 0.1 mm 3 mps 701 mmHg 94%
    01:00 -14°C° 0 mm 3 mps 701 mmHg 94%
    02:00 -14°C° 0.1 mm 3 mps 701 mmHg 93%
    03:00 -13°C° 0.1 mm 3 mps 700 mmHg 93%
    04:00 -13°C° 0.1 mm 3 mps 700 mmHg 93%
    05:00 -14°C° 0.1 mm 4 mps 700 mmHg 92%
    06:00 -12°C° 0.1 mm 4 mps 700 mmHg 92%
    07:00 -12°C° 0 mm 5 mps 700 mmHg 89%
    08:00 -12°C° 0.1 mm 5 mps 700 mmHg 87%
    09:00 -12°C° 0.1 mm 5 mps 700 mmHg 86%
    10:00 -12°C° 0.1 mm 5 mps 700 mmHg 84%
    11:00 -12°C° 0.1 mm 5 mps 701 mmHg 83%
    12:00 -11°C° 0.1 mm 5 mps 701 mmHg 82%
    13:00 -11°C° 0 mm 5 mps 701 mmHg 80%
    14:00 -12°C° 0 mm 5 mps 701 mmHg 82%
    15:00 -12°C° 0 mm 4 mps 701 mmHg 84%
    16:00 -12°C° 0 mm 4 mps 701 mmHg 87%
    17:00 -14°C° 0 mm 4 mps 701 mmHg 88%
    18:00 -13°C° 0 mm 3 mps 701 mmHg 89%
    19:00 -14°C° 0 mm 4 mps 701 mmHg 89%
    20:00 -14°C° 0 mm 4 mps 701 mmHg 90%
    21:00 -14°C° 0 mm 4 mps 701 mmHg 91%
    22:00 -13°C° 0 mm 3 mps 701 mmHg 91%
    23:00 -13°C° 0.1 mm 3 mps 701 mmHg 91%

    Tomorrow, 19 December, Wednesday

    Time Temperature Precipitation Wind Pressure Humidity
    00:00 -12°C° 0.1 mm 4 mps 701 mmHg 91%
    01:00 -12°C° 0.1 mm 4 mps 701 mmHg 90%
    02:00 -12°C° 0.1 mm 4 mps 701 mmHg 91%
    03:00 -12°C° 0.1 mm 4 mps 701 mmHg 91%
    04:00 -12°C° 0.1 mm 4 mps 701 mmHg 91%
    05:00 -12°C° 0.1 mm 4 mps 701 mmHg 91%
    06:00 -12°C° 0.1 mm 3 mps 701 mmHg 91%
    07:00 -12°C° 0.1 mm 3 mps 701 mmHg 92%
    08:00 -12°C° 0 mm 3 mps 701 mmHg 90%
    09:00 -12°C° 0 mm 3 mps 701 mmHg 88%
    10:00 -12°C° 0 mm 3 mps 701 mmHg 87%
    11:00 -9°C° 0 mm 2 mps 701 mmHg 84%
    12:00 -9°C° 0 mm 2 mps 701 mmHg 81%
    13:00 -8°C° 0 mm 2 mps 701 mmHg 77%
    14:00 -9°C° 0 mm 2 mps 700 mmHg 81%
    15:00 -10°C° 0 mm 2 mps 700 mmHg 84%
    16:00 -11°C° 0 mm 1 mps 700 mmHg 87%
    17:00 -11°C° 0 mm 1 mps 700 mmHg 87%
    18:00 -11°C° 0 mm 1 mps 700 mmHg 88%
    19:00 -12°C° 0 mm 1 mps 700 mmHg 88%
    20:00 -12°C° 0 mm 1 mps 699 mmHg 88%
    21:00 -12°C° 0 mm 1 mps 699 mmHg 89%
    22:00 -12°C° 0 mm 1 mps 699 mmHg 89%
    23:00 -13°C° 0 mm 1 mps 699 mmHg 89%

    Day after tomorrow, 20 December, Thursday

    Time Temperature Precipitation Wind Pressure Humidity
    00:00 -13°C° 0 mm 1 mps 699 mmHg 90%
    01:00 -13°C° 0 mm 1 mps 699 mmHg 90%
    02:00 -13°C° 0 mm 1 mps 699 mmHg 90%
    03:00 -13°C° 0 mm 1 mps 699 mmHg 91%
    04:00 -14°C° 0 mm 1 mps 699 mmHg 91%
    05:00 -14°C° 0 mm 1 mps 699 mmHg 91%
    06:00 -14°C° 0 mm 1 mps 698 mmHg 91%
    07:00 -14°C° 0 mm 1 mps 698 mmHg 91%
    08:00 -14°C° 0 mm 1 mps 699 mmHg 89%
    09:00 -13°C° 0 mm 1 mps 699 mmHg 87%
    10:00 -12°C° 0 mm 1 mps 699 mmHg 85%
    11:00 -13°C° 0 mm 2 mps 699 mmHg 83%
    12:00 -12°C° 0 mm 2 mps 699 mmHg 81%
    13:00 -10°C° 0 mm 2 mps 699 mmHg 79%
    14:00 -12°C° 0 mm 2 mps 699 mmHg 82%
    15:00 -13°C° 0 mm 2 mps 699 mmHg 85%
    16:00 -14°C° 0 mm 2 mps 699 mmHg 87%
    17:00 -15°C° 0 mm 2 mps 699 mmHg 87%
    18:00 -15°C° 0 mm 2 mps 699 mmHg 87%
    19:00 -16°C° 0 mm 2 mps 699 mmHg 86%
    20:00 -15°C° 0 mm 2 mps 700 mmHg 87%
    21:00 -15°C° 0 mm 2 mps 700 mmHg 87%
    22:00 -15°C° 0 mm 2 mps 701 mmHg 88%
    23:00 -15°C° 0 mm 2 mps 701 mmHg 88%

    21 December, Friday

    Time Temperature Precipitation Wind Pressure Humidity
    00:00 -16°C° 0 mm 3 mps 702 mmHg 88%
    01:00 -16°C° 0 mm 3 mps 703 mmHg 88%
    02:00 -17°C° 0 mm 3 mps 704 mmHg 87%
    03:00 -18°C° 0 mm 3 mps 704 mmHg 85%
    04:00 -19°C° 0 mm 3 mps 705 mmHg 84%
    05:00 -22°C° 0 mm 3 mps 706 mmHg 83%
    06:00 -24°C° 0 mm 3 mps 708 mmHg 83%
    07:00 -25°C° 0 mm 3 mps 709 mmHg 83%
    08:00 -26°C° 0 mm 3 mps 710 mmHg 79%
    09:00 -26°C° 0 mm 3 mps 711 mmHg 76%
    10:00 -27°C° 0 mm 4 mps 712 mmHg 72%
    11:00 -26°C° 0 mm 3 mps 712 mmHg 71%
    12:00 -26°C° 0 mm 3 mps 712 mmHg 70%
    13:00 -26°C° 0 mm 3 mps 712 mmHg 69%
    14:00 -27°C° 0 mm 3 mps 712 mmHg 74%
    15:00 -27°C° 0 mm 2 mps 712 mmHg 79%
    16:00 -28°C° 0 mm 2 mps 712 mmHg 83%
    17:00 -28°C° 0 mm 2 mps 712 mmHg 86%
    18:00 -28°C° 0 mm 2 mps 712 mmHg 88%
    19:00 -29°C° 0 mm 2 mps 711 mmHg 90%
    20:00 -28°C° 0 mm 2 mps 711 mmHg 89%
    21:00 -30°C° 0 mm 3 mps 711 mmHg 88%
    22:00 -30°C° 0 mm 3 mps 711 mmHg 86%
    23:00 -29°C° 0 mm 3 mps 710 mmHg 84%

    22 December, Saturday

    Time Temperature Precipitation Wind Pressure Humidity
    00:00 -27°C° 0 mm 3 mps 710 mmHg 81%
    01:00 -26°C° 0 mm 3 mps 709 mmHg 78%
    02:00 -26°C° 0 mm 3 mps 709 mmHg 76%
    03:00 -25°C° 0 mm 3 mps 708 mmHg 74%
    04:00 -25°C° 0 mm 3 mps 708 mmHg 72%
    05:00 -24°C° 0 mm 3 mps 707 mmHg 74%
    06:00 -24°C° 0 mm 3 mps 707 mmHg 75%
    07:00 -24°C° 0 mm 3 mps 707 mmHg 77%
    08:00 -23°C° 0 mm 3 mps 707 mmHg 75%
    09:00 -22°C° 0 mm 3 mps 706 mmHg 74%
    10:00 -21°C° 0 mm 3 mps 706 mmHg 73%
    11:00 -20°C° 0 mm 4 mps 706 mmHg 72%
    12:00 -19°C° 0 mm 4 mps 705 mmHg 71%
    13:00 -18°C° 0 mm 4 mps 705 mmHg 70%
    14:00 -19°C° 0 mm 4 mps 704 mmHg 75%
    15:00 -18°C° 0 mm 3 mps 704 mmHg 79%
    16:00 -19°C° 0 mm 3 mps 704 mmHg 83%
    17:00 -19°C° 0 mm 3 mps 703 mmHg 82%
    18:00 -19°C° 0 mm 3 mps 703 mmHg 82%
    19:00 -19°C° 0 mm 3 mps 703 mmHg 82%
    20:00 -19°C° 0 mm 3 mps 703 mmHg 81%
    21:00 -19°C° 0 mm 3 mps 702 mmHg 80%
    22:00 -19°C° 0 mm 3 mps 702 mmHg 79%
    23:00 -21°C° 0 mm 3 mps 701 mmHg 81%

    23 December, Sunday

    Time Temperature Precipitation Wind Pressure Humidity
    00:00 -19°C° 0 mm 2 mps 701 mmHg 82%
    01:00 -19°C° 0 mm 2 mps 701 mmHg 84%
    02:00 -20°C° 0 mm 2 mps 701 mmHg 85%
    03:00 -20°C° 0 mm 2 mps 700 mmHg 87%
    04:00 -20°C° 0 mm 2 mps 700 mmHg 88%
    05:00 -20°C° 0 mm 2 mps 700 mmHg 89%
    06:00 -19°C° 0 mm 2 mps 700 mmHg 90%
    07:00 -19°C° 0 mm 2 mps 700 mmHg 91%
    08:00 -19°C° 0.1 mm 3 mps 701 mmHg 89%
    09:00 -19°C° 0.1 mm 3 mps 701 mmHg 86%
    10:00 -19°C° 0.1 mm 4 mps 702 mmHg 84%
    11:00 -19°C° 0 mm 4 mps 702 mmHg 80%
    12:00 -20°C° 0 mm 4 mps 702 mmHg 77%
    13:00 -21°C° 0 mm 5 mps 703 mmHg 73%
    14:00 -24°C° 0 mm 5 mps 703 mmHg 76%
    15:00 -24°C° 0 mm 4 mps 704 mmHg 78%
    16:00 -26°C° 0 mm 4 mps 704 mmHg 81%
    17:00 -27°C° 0 mm 4 mps 705 mmHg 83%
    18:00 -30°C° 0 mm 4 mps 706 mmHg 85%
    19:00 -31°C° 0 mm 4 mps 707 mmHg 86%
    20:00 -32°C° 0 mm 4 mps 708 mmHg 87%
    21:00 -34°C° 0 mm 4 mps 708 mmHg 87%
    22:00 -35°C° 0 mm 4 mps 709 mmHg 87%
    23:00 -37°C° 0 mm 4 mps 710 mmHg 87%
    Show more